Massena, NY

8:20 PM EST on February 10, 2016 (GMT -0500)
Massena International-Richards

Weather History for KMSS - June, 2014

Change the Weather History Date:

Thursday, June 26, 2014

  Actual Average Record
Temperature  
Mean Temperature 69 °F 67 °F  
Max Temperature 80 °F 78 °F 91 °F (1973)
Min Temperature 57 °F 56 °F 38 °F (1970)
Degree Days  
Heating Degree Days 0 2  
Month to date heating degree days 91  
Since 1 June heating degree days 91  
Since 1 July heating degree days 8192  
Cooling Degree Days 4 4  
Month to date cooling degree days 55 58  
Year to date cooling degree days 70 72  
Since 1 June cooling degree days 55 58  
Growing Degree Days 19 (Base 50)    
Moisture  
Dew Point 61 °F    
Average Humidity 75    
Maximum Humidity 100    
Minimum Humidity 50    
Precipitation  
Precipitation 0.12 in 0.12 in 1.20 in (1983)
Month to date precipitation 4.92 3.04  
Year to date precipitation 14.85 14.97  
Sea Level Pressure  
Sea Level Pressure 29.98 in    
Wind  
Wind Speed 4 mph (NE)    
Max Wind Speed 16 mph    
Max Gust Speed 18 mph    
Visibility 7 miles    
Events Fog    
T = Trace of Precipitation, MM = Missing Value Source: NWS Daily Summary

Daily Weather History Graph

Daily Weather History Graph

Search for Another Location

Airport or City:

Trip Planner

Search our weather history database for the weather conditions in past years. The results will help you decide how hot, cold, wet, or windy it might be!

Date:

Astronomy

Jun. 26, 2014 Rise Set
Actual Time 5:14 AM EDT 8:50 PM EDT
Civil Twilight 4:37 AM EDT 9:27 PM EDT
Nautical Twilight 3:47 AM EDT 10:16 PM EDT
Astronomical Twilight 2:42 AM EDT 11:22 PM EDT
Moon 4:55 AM EDT (6/26) 8:04 PM EDT (6/26)
Length of Visible Light 16h 50m
Length of Day
15h 35m
Waning Crescent, 0% of the Moon is Illuminated
Jun 26
Waning Crescent
Jun 27
New
Jul 5
First Quarter
Jul 12
Full
Jul 18
Last Quarter

Hourly Weather History & Observations

Time (EDT) Temp. Dew Point Humidity Pressure Visibility Wind Dir Wind Speed Gust Speed Precip Events Conditions
12:53 AM 66.2 °F 62.6 °F 88% 29.90 in 10.0 mi NNE 5.8 mph - N/A   Overcast
1:53 AM 66.9 °F 61.0 °F 81% 29.90 in 10.0 mi North 5.8 mph - N/A   Overcast
2:53 AM 64.9 °F 61.0 °F 87% 29.90 in 10.0 mi NNW 3.5 mph - N/A   Mostly Cloudy
3:53 AM 64.0 °F 60.1 °F 87% 29.90 in 10.0 mi NNE 5.8 mph - N/A   Partly Cloudy
4:53 AM 63.0 °F 60.1 °F 90% 29.91 in 10.0 mi NNE 6.9 mph - N/A   Scattered Clouds
5:53 AM 63.0 °F 60.1 °F 90% 29.93 in 10.0 mi NNE 4.6 mph - N/A   Partly Cloudy
6:53 AM 66.0 °F 60.1 °F 81% 29.94 in 10.0 mi NNE 4.6 mph - N/A   Clear
7:53 AM 68.0 °F 59.0 °F 73% 29.96 in 10.0 mi NE 6.9 mph - N/A   Scattered Clouds
8:53 AM 71.1 °F 61.0 °F 70% 29.97 in 10.0 mi NNE 5.8 mph - N/A   Partly Cloudy
9:53 AM 73.0 °F 62.1 °F 68% 29.97 in 10.0 mi Variable 6.9 mph - N/A   Partly Cloudy
10:53 AM 73.0 °F 61.0 °F 66% 29.97 in 10.0 mi NNE 8.1 mph - N/A   Scattered Clouds
11:53 AM 73.0 °F 61.0 °F 66% 29.98 in 10.0 mi NNE 6.9 mph - N/A   Scattered Clouds
12:53 PM 77.0 °F 62.1 °F 60% 29.98 in 10.0 mi NE 9.2 mph - N/A   Partly Cloudy
1:53 PM 78.1 °F 60.1 °F 54% 29.97 in 10.0 mi Variable 3.5 mph - N/A   Mostly Cloudy
2:53 PM 79.0 °F 60.1 °F 52% 29.96 in 10.0 mi NE 4.6 mph - N/A   Partly Cloudy
3:53 PM 78.1 °F 60.1 °F 54% 29.96 in 10.0 mi NE 4.6 mph - N/A   Overcast
4:53 PM 71.1 °F 63.0 °F 75% 29.97 in 10.0 mi SE 5.8 mph - 0.12 in   Mostly Cloudy
5:53 PM 77.0 °F 57.0 °F 50% 29.97 in 10.0 mi East 4.6 mph - N/A   Mostly Cloudy
6:53 PM 75.9 °F 57.9 °F 54% 29.97 in 10.0 mi ESE 4.6 mph - N/A   Clear
7:53 PM 75.0 °F 61.0 °F 62% 29.98 in 10.0 mi Calm Calm - N/A   Clear
8:53 PM 66.0 °F 64.0 °F 93% 29.99 in 10.0 mi Calm Calm - N/A   Clear
9:53 PM 62.1 °F 61.0 °F 96% 30.01 in 10.0 mi Calm Calm - N/A   Clear
10:50 PM 60.8 °F 60.8 °F 100% 30.02 in 1.5 mi Calm Calm - N/A   Scattered Clouds
10:53 PM 61.0 °F 61.0 °F 100% 30.03 in 1.0 mi Calm Calm - N/A   Partly Cloudy
11:06 PM 61.0 °F 61.0 °F 100% 30.03 in 1.2 mi Calm Calm - N/A   Scattered Clouds
11:14 PM 61.0 °F 61.0 °F 100% 30.03 in 0.5 mi Calm Calm - N/A Fog Fog
11:21 PM 61.0 °F 61.0 °F 100% 30.03 in 2.0 mi Calm Calm - N/A   Mostly Cloudy
11:28 PM 60.1 °F 60.1 °F 100% 30.03 in 6.0 mi Calm Calm - N/A   Mostly Cloudy
11:31 PM 60.1 °F 60.1 °F 100% 30.03 in 1.5 mi Calm Calm - N/A   Mostly Cloudy
11:33 PM 60.1 °F 60.1 °F 100% 30.03 in 0.8 mi Calm Calm - N/A   Mostly Cloudy
11:47 PM 59.0 °F 59.0 °F 100% 30.04 in 1.5 mi Calm Calm - N/A   Scattered Clouds
11:53 PM 59.0 °F 59.0 °F 100% 30.04 in 0.8 mi Calm Calm - N/A   Scattered Clouds